Orbital Elements at Epoch 2459000.5 (2020-May-31.0) TDB
Reference: JPL 11 (heliocentric ecliptic J2000)
Element | Value | Uncertainty (1-sigma) | Units |
e | .200937334761898 | 1.5827e-07 | |
a | 2.72901858092017 | 2.5429e-08 | au |
q | 2.180656860754374 | 4.3935e-07 | au |
i | 5.530424970304074 | 7.9057e-06 | deg |
node | 299.7376219499167 | 0.00011793 | deg |
peri | 78.85543313750144 | 0.00011974 | deg |
M | 131.0687291483468 | 1.8476e-05 | deg |
tp | 2458400.978512142206 (2018-Oct-09.47851214) | 8.3299e-05 | TDB |
period | 1646.676038069515 4.51 | 2.3016e-05 6.301e-08 | d yr |
n | .2186222375726358 | 3.0557e-09 | deg/d |
Q | 3.277380301085966 | 3.0539e-08 | au |
|
| | Orbit Determination Parameters
Additional Information
|